Simultaneous Nadir Overpasses (SNOs) Predictions

Prediction of SNOs between AQUA and LANDSAT-8 Satellite Orbit:

Table of predicted SNOs for the next 14.0 days since TLE Epoch: 6/22/2024
Index Date (AQUA) Time (AQUA) Lat,Lon (AQUA) SZA (AQUA ) Date (LANDSAT-8) Time (LANDSAT-8) Lat,Lon (LANDSAT-8) SZA (LANDSAT-8 ) Distance(km) Time Diff (sec)
1 06/25/2024 15:18:26 -73.10, 134.53 130.33 06/25/2024 15:17:21 -73.10, 131.80 130.36 88.48 65
2 06/25/2024 16:07:51 73.21, -58.04 49.79 06/25/2024 16:06:45 73.17, -60.41 49.72 76.49 66
3 06/25/2024 16:57:17 -73.48, 109.06 129.96 06/25/2024 16:56:07 -73.47, 107.84 129.98 38.51 70
4 06/25/2024 17:46:41 73.54, -83.41 50.11 06/25/2024 17:45:31 73.54, -84.36 50.10 29.77 70
5 06/25/2024 18:36:06 -73.75, 83.78 129.69 06/25/2024 18:34:55 -73.73, 83.69 129.71 3.15 71
6 06/25/2024 19:25:29 73.76,-108.58 50.32 06/25/2024 19:24:20 73.76,-108.61 50.32 1.05 69
7 06/25/2024 20:14:50 -73.76, 59.07 129.68 06/25/2024 20:13:48 -73.74, 58.99 129.70 3.55 62
8 06/25/2024 21:04:13 73.77,-133.29 50.34 06/25/2024 21:03:13 73.76,-133.32 50.33 1.37 60
9 06/25/2024 21:53:34 -73.77, 34.36 129.66 06/25/2024 21:52:40 -73.80, 34.39 129.64 2.83 54
10 06/25/2024 22:42:57 73.78,-158.00 50.36 06/25/2024 22:42:06 73.77,-158.03 50.34 2.03 51
11 06/25/2024 23:32:18 -73.79, 9.65 129.64 06/25/2024 23:31:33 -73.80, 9.68 129.63 2.08 45
12 06/26/2024 00:21:41 73.80, 177.29 50.37 06/26/2024 00:20:59 73.77, 177.26 50.34 2.81 42
13 06/26/2024 01:11:02 -73.80, -15.06 129.63 06/26/2024 01:10:26 -73.81, -15.02 129.62 1.45 36
14 06/26/2024 02:00:25 73.81, 152.57 50.39 06/26/2024 01:59:51 73.83, 152.67 50.41 3.62 34
15 06/26/2024 02:49:46 -73.81, -39.77 129.61 06/26/2024 02:49:19 -73.82, -39.73 129.61 1.12 27
16 06/26/2024 03:39:09 73.82, 127.86 50.40 06/26/2024 03:38:44 73.84, 127.96 50.41 3.25 25
17 06/26/2024 04:28:30 -73.83, -64.48 129.60 06/26/2024 04:28:12 -73.82, -64.44 129.60 1.36 18
18 06/26/2024 05:17:53 73.84, 103.15 50.42 06/26/2024 05:17:37 73.84, 103.25 50.42 3.09 16
19 06/26/2024 06:07:14 -73.84, -89.19 129.58 06/26/2024 06:07:05 -73.83, -89.15 129.60 1.98 9
20 06/26/2024 06:56:37 73.85, 78.44 50.43 06/26/2024 06:56:30 73.85, 78.54 50.43 3.18 7
21 06/26/2024 07:45:58 -73.85,-113.90 129.57 06/26/2024 07:45:58 -73.83,-113.86 129.59 2.74 0
22 06/26/2024 08:35:21 73.87, 53.73 50.45 06/26/2024 08:35:23 73.85, 53.83 50.44 3.50 2
23 06/26/2024 09:24:41 -73.82,-138.50 129.60 06/26/2024 09:24:51 -73.84,-138.57 129.58 3.30 10
24 06/26/2024 10:14:04 73.83, 29.13 50.42 06/26/2024 10:14:16 73.86, 29.12 50.45 3.57 12
25 06/26/2024 11:03:25 -73.83,-163.21 129.59 06/26/2024 11:03:44 -73.84,-163.27 129.57 2.63 19
26 06/26/2024 11:52:48 73.84, 4.42 50.43 06/26/2024 11:53:09 73.87, 4.42 50.46 2.66 21
27 06/26/2024 12:42:09 -73.84, 172.08 129.57 06/26/2024 12:42:37 -73.85, 172.02 129.56 2.11 28
28 06/26/2024 13:31:32 73.86, -20.29 50.45 06/26/2024 13:32:02 73.87, -20.29 50.46 1.75 30
29 06/26/2024 14:20:53 -73.86, 147.37 129.55 06/26/2024 14:21:30 -73.86, 147.31 129.55 1.88 37
30 06/26/2024 15:10:16 73.87, -45.00 50.46 06/26/2024 15:10:55 73.88, -45.00 50.47 0.83 39
31 06/26/2024 15:59:37 -73.87, 122.66 129.54 06/26/2024 16:00:23 -73.86, 122.60 129.55 2.05 46
32 06/26/2024 16:49:00 73.88, -69.71 50.48 06/26/2024 16:49:48 73.88, -69.71 50.48 0.20 48
33 06/26/2024 17:38:21 -73.88, 97.95 129.52 06/26/2024 17:39:16 -73.87, 97.89 129.54 2.54 55
34 06/26/2024 18:27:44 73.90, -94.43 50.50 06/26/2024 18:28:41 73.89, -94.42 50.49 1.06 57
35 06/26/2024 19:17:04 -73.90, 73.23 129.51 06/26/2024 19:18:08 -73.87, 73.18 129.53 3.22 64
36 06/26/2024 20:06:27 73.91,-119.14 50.51 06/26/2024 20:07:33 73.89,-119.13 50.50 1.99 66
37 06/26/2024 20:55:48 -73.91, 48.52 129.49 06/26/2024 20:57:00 -73.93, 48.59 129.47 2.93 72
38 06/26/2024 21:45:13 74.03,-144.09 50.63 06/26/2024 21:46:24 74.00,-143.60 50.61 15.23 71
39 06/26/2024 22:34:39 -74.28, 22.97 129.12 06/26/2024 22:35:47 -74.24, 24.59 129.14 49.12 68
40 06/26/2024 23:24:04 74.40,-169.66 51.00 06/26/2024 23:25:11 74.32,-167.59 50.94 62.71 67
41 06/27/2024 00:13:29 -74.60, -2.49 128.80 06/27/2024 00:14:34 -74.56, 0.62 128.81 92.25 65



Historial Predications of SNOs between AQUA and LANDSAT-8
